Regional Weather Roundup
Issued by NWS

Home | Current Version | Previous Version | Graphics & Text | Print | Product List | Glossary On
Versions: 1 2 3 4 5 6 7 8 9 10 11 12 13 14 15 16 17 18 19 20 21 22 23 24 25 26 27 28 29 30 31 32 33 34 35 36 37 38 39 40 41 42 43 44 45 46 47 48 49 50
174
ASUS43 KOAX 270610
RWRNE

WEATHER ROUNDUP FOR NEBRASKA
NATIONAL WEATHER SERVICE OMAHA NE
100 AM CDT MON MAR 27 2017

NOTES: SATELLITE DATA IS BEING USED TO AUGMENT CLOUD COVER ABOVE
       12000 FEET.
       "FAIR" INDICATES FEW OR NO CLOUDS BELOW 12,000 FEET WITH NO
       SIGNIFICANT WEATHER AND/OR OBSTRUCTIONS TO VISIBILITY.

  * THESE STATIONS DO NOT REPORT WEATHER SUCH AS RAIN...SNOW OR FOG.

NEZ001>004-019>022-054>056-270700-
NEBRASKA PANHANDLE

CITY           SKY/WX    TMP DP  RH WIND       PRES   REMARKS
SCOTTSBLUFF    CLOUDY    33  28  81 NE5       29.96S WCI  29
6HR MIN TEMP:  33; 6HR MAX TEMP:  52;

ALLIANCE       PTCLDY    29  29 100 W6        29.94S FOG     WCI  23
6HR MIN TEMP:  29; 6HR MAX TEMP:  51;

CHADRON        MOCLDY    38  36  92 SW6       29.95S WCI  33
6HR MIN TEMP:  35; 6HR MAX TEMP:  49;

KIMBALL        CLOUDY    32  32 100 W5        29.97S WCI  28
SIDNEY         CLEAR     32  30  92 N9        29.96F WCI  24
6HR MIN TEMP:  31; 6HR MAX TEMP:  52;

$$

NEZ057>060-069>072-079>082-270700-
SOUTHWEST NEBRASKA

CITY           SKY/WX    TMP DP  RH WIND       PRES   REMARKS
NORTH PLATTE   CLOUDY    45  40  82 E7        29.93F
6HR MIN TEMP:  40; 6HR MAX TEMP:  58;

IMPERIAL       CLEAR     39  37  92 S3        29.93S
6HR MIN TEMP:  39; 6HR MAX TEMP:  54;

LEXINGTON      MOCLDY    39  38  94 N5        29.95S FOG
MCCOOK         MOCLDY    41  40  96 W5        29.94S
6HR MIN TEMP:  39; 6HR MAX TEMP:  52;

OGALLALA       CLEAR     44  39  83 N5        29.92R
$$

NEZ005>010-023>029-035>040-094-270700-
NORTH CENTRAL NEBRASKA

CITY           SKY/WX    TMP DP  RH WIND       PRES   REMARKS
VALENTINE      CLEAR     35  31  85 CALM      29.95F
6HR MIN TEMP:  35; 6HR MAX TEMP:  52;

AINSWORTH      CLOUDY    39  39 100 CALM      29.96F
BROKEN BOW     CLEAR     42  40  92 N3        29.94S
6HR MIN TEMP:  42; 6HR MAX TEMP:  51;

O`NEILL        CLOUDY    44  41  89 NW3       29.97R
ORD            CLOUDY    42  39  89 W3        29.95R
6HR MIN TEMP:  41; 6HR MAX TEMP:  50;

THEDFORD       PTCLDY    40  39  96 NE5       29.96S
$$

NEZ041-046>049-061>064-073>077-083>087-270700-
SOUTH CENTRAL NEBRASKA

CITY           SKY/WX    TMP DP  RH WIND       PRES   REMARKS
GRAND ISLAND   CLOUDY    44  44 100 NE6       29.93F FOG
6HR MIN TEMP:  44; 6HR MAX TEMP:  48;

AURORA         CLOUDY    44  44  98 NE6       29.93S
HASTINGS       CLOUDY    45  44  97 E3        29.93F FOG
6HR MIN TEMP:  45; 6HR MAX TEMP:  49; 6HR PCP:  0.10;

HEBRON         CLOUDY    44  43  95 NE6       29.90F
HOLDREGE       CLOUDY    43  41  95 NW5       29.93S
KEARNEY *      CLOUDY    45  43  93 NW3       29.95R
YORK           CLOUDY    45  45 100 NE5       29.93F FOG
$$

NEZ011>018-030>034-042>045-270700-
NORTHEAST NEBRASKA

CITY           SKY/WX    TMP DP  RH WIND       PRES   REMARKS
NORFOLK        CLOUDY    42  40  92 CALM      29.94S
6HR MIN TEMP:  42; 6HR MAX TEMP:  46;

ALBION         CLOUDY    45  42  91 CALM      29.94S
BLAIR          CLOUDY    46  42  86 N8        29.93F
FREMONT        CLOUDY    44  43  98 CALM      29.94F
TEKAMAH        CLOUDY    45  41  86 N7        29.94F
6HR MIN TEMP:  45; 6HR MAX TEMP:  48;

WAYNE          CLOUDY    42  42  99 CALM      29.95S
$$

NEZ050>053-065>068-078-088>093-270700-
SOUTHEAST NEBRASKA

CITY           SKY/WX    TMP DP  RH WIND       PRES   REMARKS
LINCOLN        CLOUDY    46  43  89 N9        29.94F
6HR MIN TEMP:  46; 6HR MAX TEMP:  49;

OMAHA EPPLEY   CLOUDY    47  42  83 N7        29.93F
6HR MIN TEMP:  47; 6HR MAX TEMP:  49;

BEATRICE       CLOUDY    46  44  94 N7        29.90F
FALLS CITY     CLOUDY    46  44  93 SE5       29.92R
6HR MIN TEMP:  46; 6HR MAX TEMP:  48; 6HR PCP: TRACE;

NEBRASKA CITY  CLOUDY    45  44  96 N5        29.91F
PLATTSMOUTH    CLOUDY    46  41  83 N3        29.92F
$$

NEZ044-045-051>053-067-270700-
OMAHA AREA

CITY           SKY/WX    TMP DP  RH WIND       PRES   REMARKS
OMAHA EPPLEY   CLOUDY    47  42  83 N7        29.93F
6HR MIN TEMP:  47; 6HR MAX TEMP:  49;

BLAIR          CLOUDY    46  42  86 N8        29.93F
FREMONT        CLOUDY    44  43  98 CALM      29.94F
MILLARD        CLOUDY    49  44  84 CALM      29.93F
OFFUTT AFB     CLOUDY    47  42  82 N5        29.92F
PLATTSMOUTH    CLOUDY    46  41  83 N3        29.92F
WAHOO          CLOUDY    44  43  95 N8        29.94F
$$




USA.gov is the U.S. government's official web portal to all federal, state and local government web resources and services.